Weather History for Akron Canton, OH

Change the Weather History Date:

Thursday, May 15, 2014

  Actual Average Record
Temperature  
Mean Temperature 59 °F 59 °F  
Max Temperature 69 °F 69 °F 91 °F (1991)
Min Temperature 49 °F 48 °F 30 °F (1910)
Degree Days  
Heating Degree Days 6 7  
Month to date heating degree days 89 136  
Since 1 July heating degree days 6340 6012  
Cooling Degree Days 0 1  
Month to date cooling degree days 38 9  
Year to date cooling degree days 41 15  
Growing Degree Days 10 (Base 50)    
Moisture  
Dew Point 57 °F    
Average Humidity 69    
Maximum Humidity 100    
Minimum Humidity 37    
Precipitation  
Precipitation 0.00 in 0.15 in 1.78 in (2003)
Month to date precipitation 2.50 2.00  
Year to date precipitation 14.83 13.45  
Snow  
Snow 0.00 in 0.00 in - ()
Month to date snowfall 0.0 0.1  
Since 1 July snowfall 69.9 47.5  
Snow Depth 0.00 in    
Sea Level Pressure  
Sea Level Pressure 29.86 in    
Wind  
Wind Speed 11 mph (South)    
Max Wind Speed 20 mph    
Max Gust Speed 20 mph    
Visibility 7 miles    
Events Rain    
T = Trace of Precipitation, MM = Missing Value Source: NWS Daily Summary

Daily Weather History Graph

Daily Weather History Graph

Search for Another Location

Airport:

Trip Planner

Search our weather history database for the weather conditions in past years. The results will help you decide how hot, cold, wet, or windy it might be!

Date:

Astronomy

May. 15, 2014 Rise Set
Actual Time 6:08 AM EDT 8:36 PM EDT
Civil Twilight 5:36 AM EDT 9:07 PM EDT
Nautical Twilight 4:58 AM EDT 9:46 PM EDT
Astronomical Twilight 4:15 AM EDT 10:30 PM EDT
Moon 9:43 PM EDT (5/15) 6:54 AM EDT (5/15)
Length of Visible Light 15h 30m
Length of Day
14h 28m
Full, 99% of the Moon is Illuminated
May 15
Full
May 21
Last Quarter
May 28
New
Jun 5
First Quarter
Jun 13
Full

Hourly Weather History & Observations

Time (EDT) Temp. Dew Point Humidity Pressure Visibility Wind Dir Wind Speed Gust Speed Precip Events Conditions
12:51 AM 66.0 °F 63.0 °F 90% 29.88 in 10.0 mi East 4.6 mph - 0.00 in   Mostly Cloudy
1:51 AM 66.0 °F 63.0 °F 90% 29.87 in 10.0 mi ESE 4.6 mph - N/A   Overcast
2:51 AM 66.0 °F 62.1 °F 87% 29.87 in 10.0 mi South 9.2 mph - N/A   Overcast
3:51 AM 64.9 °F 62.1 °F 90% 29.85 in 8.0 mi South 3.5 mph - N/A   Overcast
4:51 AM 64.9 °F 63.0 °F 93% 29.84 in 8.0 mi SSE 3.5 mph - N/A   Mostly Cloudy
5:51 AM 66.0 °F 63.0 °F 90% 29.82 in 8.0 mi SSE 3.5 mph - N/A   Mostly Cloudy
6:51 AM 66.0 °F 63.0 °F 90% 29.82 in 7.0 mi South 11.5 mph - 0.02 in Rain Light Rain
7:51 AM 66.0 °F 63.0 °F 90% 29.81 in 5.0 mi South 11.5 mph - 0.06 in Rain Light Rain
8:00 AM 68.0 °F 64.4 °F 88% 29.82 in 2.0 mi SSE 13.8 mph - 0.00 in Rain Light Rain
8:51 AM 66.9 °F 64.0 °F 90% 29.81 in 2.0 mi South 18.4 mph - 0.07 in Rain Light Rain
9:26 AM 64.4 °F 64.4 °F 100% 29.81 in 3.0 mi South 13.8 mph - 0.02 in Rain Light Rain
9:51 AM 64.9 °F 64.9 °F 100% 29.79 in 2.0 mi South 13.8 mph - 0.02 in Rain Light Rain
10:51 AM 66.9 °F 63.0 °F 87% 29.79 in 3.0 mi SSE 17.3 mph - 0.04 in Rain Light Rain
11:51 AM 68.0 °F 62.1 °F 81% 29.78 in 3.0 mi South 19.6 mph - 0.00 in Rain Light Rain
12:41 PM 68.0 °F 64.4 °F 88% 29.80 in 1.5 mi SSE 13.8 mph - 0.01 in Rain Light Rain
12:51 PM 68.0 °F 64.0 °F 87% 29.81 in 1.0 mi SSE 13.8 mph - 0.06 in Rain Rain
1:12 PM 66.2 °F 62.6 °F 88% 29.84 in 3.0 mi South 9.2 mph - 0.01 in Rain Light Rain
1:51 PM 62.6 °F 60.8 °F 94% 29.85 in 3.0 mi SSW 9.2 mph - N/A Rain Light Rain
3:51 PM 62.2 °F 54.7 °F 76% 29.86 in 10.0 mi SSW 10.4 mph - 0.00 in   Overcast
4:51 PM 59.9 °F 51.4 °F 74% 29.87 in 10.0 mi SW 13.8 mph - N/A   Overcast
5:51 PM 58.6 °F 32.4 °F 37% 29.90 in 10.0 mi WSW 17.3 mph - N/A   Overcast
6:51 PM 56.8 °F 46.6 °F 69% 29.91 in 10.0 mi WSW 11.5 mph - N/A   Overcast
7:51 PM 55.4 °F 46.4 °F 72% 29.94 in 10.0 mi SW 9.2 mph - N/A   Overcast
8:51 PM 53.6 °F 45.3 °F 74% 29.95 in 10.0 mi SW 9.2 mph - N/A   Overcast
9:51 PM 52.7 °F 45.1 °F 75% 29.97 in 10.0 mi WSW 6.9 mph - N/A   Overcast
10:51 PM 51.8 °F 45.0 °F 77% 29.96 in 10.0 mi West 9.2 mph - N/A   Overcast
11:51 PM 50.0 °F 44.1 °F 80% 29.99 in 10.0 mi West 11.5 mph - N/A   Overcast